Tracking 31011 objects as of 12-Jul-2025
HD Live streaming from Space Station
objects crossing your sky now

FENGYUN 1C DEB

Track FENGYUN 1C DEB now!
10-day predictions


NORAD ID: 39537
Int'l Code: 1999-025EWE
Perigee: 827.4 km
Apogee: 1,090.5 km
Inclination: 99.1 °
Period: 104.1 minutes
Semi major axis: 7329 km
RCS: Unknown
Launch date: May 10, 1999
Source: People's Republic of China (PRC)
Launch site: Taiyaun Space Center, China (TSC)

Note: This is SATELLITE DEBRIS
Your satellite tracking list
Your tracking list is empty




NASA's NSSDC Master Catalog

Two Line Element Set (TLE):
1 39537U 99025EWE 25192.13415030  .00000904  00000-0  75967-3 0  9998
2 39537  99.1475 341.9135 0179467  35.7127 325.5879 13.83410541571180
Source of the keplerian elements: AFSPC